User: anonymous   Login
Location: Lawrence Hall of Science
(37.8785°N, 122.2415°W)
Time: 01:04:41
(UTC-07:00)
Language:

Cosmos 2098 Rocket - Orbit

View from above orbital plane
View from above orbital plane
View from above satellite
View from above satellite

Ground track
Ground track

The orbit data is extracted from the following two-line orbital elements,

1 20775U 90078B   17081.56429707 +.00001696 +00000-0 +85364-4 0  9994
2 20775 082.9273 119.1799 0589180 248.9199 104.8050 14.30190817336390
Epoch (UTC): 22 March 2017 13:32:35
Eccentricity: 0.0589180
inclination: 82.9273°
perigee height: 369 km
apogee height: 1213 km
right ascension of ascending node: 119.1799°
argument of perigee: 248.9199°
revolutions per day: 14.30190817
mean anomaly at epoch: 104.8050°
orbit number at epoch: 33639

The dashed part of the orbit path shows where the satellite is in the earth's shadow,  

DLR